Location: Waco, TX
(31.5480°N, 97.1670°W)
Time: 03:03:34
(UTC-05:00)

ISS - Pass Details

Date: 20 September 2017
Orbit: 401 x 407 km, 51.6° (Epoch: 22 September)

Event Time Altitude Azimuth Distance (km) Brightness Sun altitude
Rises 04:55:12 0° 335° (NNW) 2,329 - -30.1°
Reaches altitude 10° 04:58:30 10° 11° (N) 1,466 - -29.4°
Maximum altitude 04:59:40 11° 32° (NNE) 1,380 - -29.2°
Exits shadow 04:59:42 11° 32° (NNE) 1,380 -0.5 -29.2°
Drops below altitude 10° 05:00:51 10° 53° (NE) 1,464 -0.1 -28.9°
Sets 05:04:08 0° 88° (E) 2,321 1.1 -28.3°
